This demonstration page uses our WeatherBlox Daily Observations layout. Learn more.

Hourly Observations for July 30, 2019

Temp ( °F °C ) Dew Point ( °F °C ) Humidity (%) Winds ( mph kmh ) Pressure ( in mb ) Visibility ( mi km ) Precip ( " mm )
12:15 am 00:15 Clear 66 18.7 63 17 90 90 SE 6 9 30.03 1017 10 16.0934 0 0
12:35 am 00:35 Clear 67 19.5 61 16.3 82 82 SE 6 9 30.04 1017 10 16.0934 0 0
12:55 am 00:55 Clear 68 19.8 61 16.1 79 79 SE 6 9 30.03 1017 10 16.0934 0 0
1:15 am 01:15 Clear 66 18.7 61 16 84 84 SE 6 9 30.04 1017 10 16.0934 0 0
1:55 am 01:55 Clear 65 18.5 61 15.9 85 85 SE 5 7 30.03 1017 10 16.0934 0 0
2:15 am 02:15 Clear 65 18.5 60 15.5 83 83 SSE 3 6 30.04 1017 10 16.0934 0 0
2:35 am 02:35 Clear 64 18 60 15.5 85 85 SE 3 6 30.05 1018 10 16.0934 0 0
2:55 am 02:55 Clear 63 17.3 59 15.1 87 87 Calm 30.06 1018 10 16.0934 0 0
3:15 am 03:15 Clear 63 17 60 15.5 91 91 Calm 30.06 1018 10 16.0934 0 0
3:35 am 03:35 Clear 63 17.2 59 14.9 86 86 SE 3 6 30.07 1018 10 16.0934 0 0
3:55 am 03:55 Clear 62 16.7 60 15.3 92 92 ESE 3 6 30.06 1018 10 16.0934 0 0
4:15 am 04:15 Clear 62 16.6 59 14.9 90 90 SE 5 7 30.05 1018 10 16.0934 0 0
4:35 am 04:35 Clear 63 17.2 58 14.7 85 85 ESE 5 7 30.05 1017 10 16.0934 0 0
4:55 am 04:55 Clear 62 16.5 60 15.6 94 94 E 5 7 30.05 1018 10 16.0934 0 0
5:15 am 05:15 Clear 64 17.7 59 15.1 85 85 SE 6 9 30.05 1018 10 16.0934 0 0
5:35 am 05:35 Partly Cloudy 64 17.9 59 14.8 82 82 ESE 3 6 30.05 1018 10 16.0934 0 0
5:55 am 05:55 Partly Cloudy 62 16.7 59 15.2 91 91 E 5 7 30.06 1018 10 16.0934 0 0
6:15 am 06:15 Clear 61 16.3 60 15.5 95 95 ESE 6 9 30.05 1018 10 16.0934 0 0
6:35 am 06:35 Sunny 63 17.3 59 15.2 88 88 ESE 7 11 30.05 1017 10 16.0934 0 0
6:55 am 06:55 Sunny 62 16.8 59 15 89 89 SE 7 11 30.05 1018 10 16.0934 0 0
7:15 am 07:15 Sunny 63 17.3 59 15.2 88 88 SE 7 11 30.05 1017 10 16.0934 0 0
7:35 am 07:35 Sunny 63 17.2 60 15.4 89 89 SE 8 13 30.05 1017 10 16.0934 0 0
8:15 am 08:15 Sunny 66 18.9 59 15 78 78 SSE 10 17 30.03 1017 10 16.0934 0 0
8:35 am 08:35 Sunny 68 20 59 15 73 73 SE 10 17 30.02 1017 10 16.0934 0 0
8:55 am 08:55 Sunny 69 20.3 59 14.8 71 71 SSE 9 15 30.02 1017 10 16.0934 0 0
9:15 am 09:15 Sunny 70 21 60 15.3 70 70 SE 12 19 30.01 1016 10 16.0934 0 0
9:35 am 09:35 Sunny 71 21.5 59 15 67 67 SE 10 17 30.02 1017 10 16.0934 0 0
9:55 am 09:55 Sunny 72 22 59 15 65 65 SSE 12 19 30 1016 10 16.0934 0 0
10:15 am 10:15 Sunny 73 22.7 60 15.4 64 64 SE 14 22 30 1016 10 16.0934 0 0
10:35 am 10:35 Sunny 74 23.4 60 15.4 61 61 SE 13 20 29.99 1016 10 16.0934 0 0
10:55 am 10:55 Sunny 76 24.2 60 15.8 60 60 SE 14 22 29.98 1015 10 16.0934 0 0
11:15 am 11:15 Sunny 75 24.1 60 15.4 58 58 SE 15 24 29.98 1015 10 16.0934 0 0
11:35 am 11:35 Sunny 77 25.2 59 15 53 53 SSE 17 28 29.96 1014 10 16.0934 0 0
11:55 am 11:55 Sunny 78 25.7 60 15.4 53 53 SE 16 26 29.95 1014 10 16.0934 0 0
12:15 pm 12:15 Sunny 78 25.6 59 14.9 52 52 SE 20 31 29.94 1014 10 16.0934 0 0
2:35 pm 14:35 Sunny 82 27.9 62 16.7 51 51 SE 17 28 29.89 1012 10 16.0934 0 0
2:55 pm 14:55 Sunny 84 28.9 61 16.3 46 46 SE 18 30 29.87 1011 10 16.0934 0 0
3:15 pm 15:15 Sunny 84 29 63 17.1 49 49 SE 17 28 29.87 1011 10 16.0934 0 0
3:35 pm 15:35 Sunny 85 29.4 63 17.1 48 48 SSE 18 30 29.85 1011 10 16.0934 0 0
3:55 pm 15:55 Sunny 85 29.5 63 17.1 47 47 SE 16 26 29.84 1011 10 16.0934 0 0
4:15 pm 16:15 Sunny 84 28.7 62 16.8 49 49 SE 16 26 29.84 1010 10 16.0934 0 0
4:35 pm 16:35 Sunny 84 28.7 63 17.3 50 50 SE 17 28 29.83 1010 10 16.0934 0 0
4:55 pm 16:55 Sunny 85 29.7 64 17.5 48 48 SE 18 30 29.81 1010 10 16.0934 0 0
5:15 pm 17:15 Sunny 85 29.7 63 17.4 48 48 ESE 18 30 29.81 1010 10 16.0934 0 0
5:35 pm 17:35 Sunny 85 29.5 64 17.9 50 50 SE 17 28 29.81 1010 10 16.0934 0 0
5:55 pm 17:55 Sunny 85 29.2 64 17.7 50 50 ESE 18 30 29.82 1010 10 16.0934 0 0
6:15 pm 18:15 Sunny 84 29 65 18.1 52 52 ESE 17 28 29.82 1010 10 16.0934 0 0
6:35 pm 18:35 Sunny 83 28.6 64 17.9 52 52 ESE 17 28 29.82 1010 10 16.0934 0 0
6:55 pm 18:55 Sunny 83 28.5 64 17.7 52 52 ESE 16 26 29.82 1010 10 16.0934 0 0
7:15 pm 19:15 Sunny 83 28.1 63 17.4 52 52 ESE 16 26 29.81 1010 10 16.0934 0 0
7:35 pm 19:35 Sunny 82 27.8 64 17.5 54 54 ESE 18 30 29.82 1010 10 16.0934 0 0
7:55 pm 19:55 Sunny 81 27.2 64 18 57 57 ESE 15 24 29.82 1010 10 16.0934 0 0
8:15 pm 20:15 Sunny 79 26.3 65 18.5 62 62 E 13 20 29.83 1010 10 16.0934 0 0
8:35 pm 20:35 Sunny 78 25.6 65 18.2 64 64 ESE 14 22 29.84 1010 10 16.0934 0 0
8:55 pm 20:55 Sunny 77 24.9 65 18.1 66 66 E 13 20 29.85 1011 10 16.0934 0 0
9:15 pm 21:15 Clear 76 24.3 65 18.2 69 69 ESE 15 24 29.87 1011 10 16.0934 0 0
9:35 pm 21:35 Clear 76 24.2 64 18 68 68 ESE 14 22 29.88 1012 10 16.0934 0 0
9:55 pm 21:55 Clear 75 23.8 64 17.7 69 69 ESE 12 19 29.89 1012 10 16.0934 0 0
10:15 pm 22:15 Clear 74 23.4 64 17.7 70 70 ESE 14 22 29.89 1012 10 16.0934 0 0
10:35 pm 22:35 Clear 73 23 64 17.6 72 72 ESE 15 24 29.91 1013 10 16.0934 0 0
10:55 pm 22:55 Clear 73 22.6 64 17.7 74 74 ESE 15 24 29.91 1013 10 16.0934 0 0
11:15 pm 23:15 Clear 72 22.3 64 17.6 75 75 ESE 13 20 29.9 1013 10 16.0934 0 0
11:35 pm 23:35 Clear 71 21.7 64 17.5 77 77 SE 15 24 29.91 1013 10 16.0934 0 0
11:55 pm 23:55 Clear 71 21.5 64 17.5 78 78 ESE 13 20 29.9 1013 10 16.0934 0 0

Powered by AerisWeather